Terminal Aerodrome Forecast
Issued by NWS Indianapolis, IN

Home | Current Version | Previous Version | Text Only | Print | Product List | Glossary On
Versions: 1 2 3 4 5 6 7 8 9 10 11 12 13 14 15 16 17 18 19 20 21 22 23 24 25 26 27 28 29 30 31 32
000
FTUS43 KIND 181400 AAA
TAFIND
TAF AMD
KIND 181405Z 1814/1918 09003KT P6SM FEW014 OVC017
     FM181600 28005KT P6SM OVC020
     FM190000 31003KT P6SM OVC020
     FM191500 02004KT P6SM OVC030=

USA.gov is the U.S. government's official web portal to all federal, state and local government web resources and services.